Location: Unspecified
(50.7693°N, 0.0000°E)
Time: 07:42:01
(UTC+00:00)

Transit 2A - Pass Details

Date: 14 August 2020
Orbit: 591 x 967 km, 66.7° (Epoch: 20 September)

Event Time Altitude Azimuth Distance (km) Brightness Sun altitude
Rises 03:44:39 0° 321° (NW) 3,667 9.5 -9.3°
Reaches altitude 10° 03:47:16 10° 320° (NW) 2,713 8.8 -8.9°
Maximum altitude 03:53:38 73° 237° (WSW) 983 6.4 -8.1°
Drops below altitude 10° 03:59:39 10° 154° (SSE) 2,562 8.6 -7.3°
Sets 04:02:03 0° 152° (SSE) 3,450 9.3 -7.0°
